Weather History for Akron, CO

Change the Weather History Date:

Sunday, July 28, 2013

  Actual Average Record
Temperature  
Mean Temperature 61 °F 74 °F  
Max Temperature 68 °F 88 °F 100 °F (1959)
Min Temperature 53 °F 60 °F 50 °F (1971)
Degree Days  
Heating Degree Days 4    
Month to date heating degree days 6  
Cooling Degree Days 0    
Month to date cooling degree days 231  
Growing Degree Days 10 (Base 50)    
Moisture  
Dew Point 56 °F    
Average Humidity 84    
Maximum Humidity 100    
Minimum Humidity 68    
Precipitation  
Precipitation 0.01 in 0.09 in 1.16 in (1990)
Month to date precipitation 3.17 2.29  
Year to date precipitation 8.26 10.93  
Sea Level Pressure  
Sea Level Pressure 29.98 in    
Wind  
Wind Speed 12 mph (SE)    
Max Wind Speed 22 mph    
Max Gust Speed 25 mph    
Visibility 7 miles    
Events Fog    
T = Trace of Precipitation, MM = Missing Value Source: NWS Daily Summary

Daily Weather History Graph

Daily Weather History Graph

Search for Another Location

Airport:

Trip Planner

Search our weather history database for the weather conditions in past years. The results will help you decide how hot, cold, wet, or windy it might be!

Date:

Astronomy

Jul. 28, 2013 Rise Set
Actual Time 5:47 AM MDT 8:10 PM MDT
Civil Twilight 5:16 AM MDT 8:41 PM MDT
Nautical Twilight 4:38 AM MDT 9:19 PM MDT
Astronomical Twilight 3:56 AM MDT 10:01 PM MDT
Moon 11:33 PM MDT (7/28) 12:32 PM MDT (7/28)
Length of Visible Light 15h 24m
Length of Day
14h 23m
Waning Gibbous, 60% of the Moon is Illuminated
Jul 28
Waning Gibbous
Jul 29
Last Quarter
Aug 6
New
Aug 14
First Quarter
Aug 20
Full

Hourly Weather History & Observations

Time (MDT) Temp. Dew Point Humidity Pressure Visibility Wind Dir Wind Speed Gust Speed Precip Events Conditions
12:02 AM 59.0 °F 53.6 °F 82% 30.12 in 10.0 mi SE 8.1 mph - N/A   Mostly Cloudy
12:31 AM 57.2 °F 55.4 °F 94% 30.11 in 10.0 mi ESE 9.2 mph - N/A   Overcast
12:53 AM 57.9 °F 55.0 °F 90% 29.96 in 10.0 mi ESE 10.4 mph - N/A   Mostly Cloudy
1:53 AM 57.0 °F 55.0 °F 93% 29.96 in 10.0 mi SE 9.2 mph - N/A   Overcast
2:35 AM 57.2 °F 55.4 °F 94% 30.07 in 10.0 mi SE 10.4 mph - N/A   Overcast
2:53 AM 57.0 °F 55.0 °F 93% 29.95 in 10.0 mi SSE 11.5 mph - N/A   Overcast
3:29 AM 57.2 °F 55.4 °F 94% 30.06 in 7.0 mi SE 12.7 mph - N/A   Overcast
3:53 AM 57.0 °F 55.9 °F 96% 29.93 in 6.0 mi SE 10.4 mph - 0.00 in   Overcast
4:35 AM 57.2 °F 55.4 °F 94% 30.05 in 2.5 mi SE 9.2 mph - N/A   Overcast
4:53 AM 57.0 °F 57.0 °F 100% 29.92 in 1.5 mi SE 11.5 mph - N/A   Overcast
5:18 AM 57.2 °F 55.4 °F 94% 30.04 in 1.2 mi SE 12.7 mph - N/A   Overcast
5:30 AM 57.2 °F 55.4 °F 94% 30.04 in 0.8 mi SE 11.5 mph - N/A   Mist
5:53 AM 55.9 °F 55.9 °F 100% 29.92 in 0.5 mi ESE 10.4 mph - N/A Fog Fog
6:53 AM 53.1 °F 53.1 °F 100% 29.93 in 0.2 mi ESE 12.7 mph - N/A Fog Fog
7:53 AM 53.1 °F 53.1 °F 100% 29.95 in 0.2 mi ESE 13.8 mph - 0.01 in Fog Fog
8:53 AM 55.0 °F 55.0 °F 100% 29.95 in 0.2 mi SE 11.5 mph - N/A Fog Fog
9:53 AM 55.9 °F 55.9 °F 100% 29.94 in 1.0 mi SE 11.5 mph - N/A   Overcast
9:58 AM 55.4 °F 55.4 °F 100% 30.04 in 1.5 mi SSE 11.5 mph - N/A   Overcast
10:09 AM 55.4 °F 55.4 °F 100% 30.04 in 3.0 mi SSE 12.7 mph 20.7 mph N/A   Overcast
10:53 AM 57.0 °F 55.9 °F 96% 29.94 in 10.0 mi SSE 11.5 mph 20.7 mph N/A   Overcast
11:35 AM 60.8 °F 55.4 °F 82% 30.04 in 10.0 mi SSE 12.7 mph 20.7 mph 0.00 in   Overcast
11:53 AM 61.0 °F 55.9 °F 83% 29.93 in 10.0 mi SE 12.7 mph - 0.00 in   Overcast
12:27 PM 62.6 °F 55.4 °F 77% 30.04 in 10.0 mi SSE 13.8 mph - N/A   Overcast
12:53 PM 64.0 °F 57.0 °F 78% 29.93 in 10.0 mi SSE 13.8 mph 24.2 mph N/A   Overcast
1:53 PM 66.0 °F 57.0 °F 73% 29.91 in 10.0 mi SSE 11.5 mph - N/A   Mostly Cloudy
2:42 PM 66.2 °F 57.2 °F 73% 30.03 in 10.0 mi SSE 13.8 mph 20.7 mph N/A   Overcast
2:49 PM 66.2 °F 57.2 °F 73% 30.03 in 10.0 mi SE 12.7 mph 20.7 mph N/A   Overcast
2:53 PM 68.0 °F 57.9 °F 70% 29.90 in 10.0 mi SSE 12.7 mph - N/A   Overcast
3:14 PM 66.2 °F 57.2 °F 73% 30.02 in 10.0 mi SE 16.1 mph 21.9 mph N/A   Overcast
3:26 PM 66.2 °F 57.2 °F 73% 30.02 in 10.0 mi SE 13.8 mph 21.9 mph N/A   Overcast
3:53 PM 66.9 °F 57.0 °F 70% 29.89 in 10.0 mi ESE 13.8 mph - N/A   Mostly Cloudy
4:08 PM 66.2 °F 57.2 °F 73% 30.01 in 10.0 mi ESE 15.0 mph - N/A   Scattered Clouds
4:21 PM 66.2 °F 57.2 °F 73% 30.01 in 10.0 mi SE 12.7 mph - N/A   Mostly Cloudy
4:53 PM 66.0 °F 57.0 °F 73% 29.88 in 10.0 mi SSE 17.3 mph 24.2 mph N/A   Mostly Cloudy
5:17 PM 64.4 °F 57.2 °F 77% 30.01 in 10.0 mi SSE 15.0 mph 24.2 mph N/A   Overcast
5:53 PM 64.0 °F 57.0 °F 78% 29.90 in 10.0 mi SE 15.0 mph 24.2 mph N/A   Overcast
6:53 PM 63.0 °F 57.0 °F 81% 29.91 in 10.0 mi SSE 15.0 mph 23.0 mph N/A   Overcast
7:53 PM 61.0 °F 57.0 °F 87% 29.93 in 10.0 mi SSE 12.7 mph 24.2 mph N/A   Overcast
8:53 PM 61.0 °F 57.0 °F 87% 29.94 in 10.0 mi SSE 11.5 mph - N/A   Overcast
9:53 PM 60.1 °F 57.0 °F 90% 29.95 in 10.0 mi SSE 17.3 mph 23.0 mph N/A   Overcast
10:53 PM 60.1 °F 57.9 °F 93% 29.94 in 7.0 mi SSE 19.6 mph 24.2 mph N/A   Overcast
11:53 PM 60.1 °F 57.9 °F 93% 29.92 in 7.0 mi South 17.3 mph 25.3 mph N/A   Overcast